FW4098 Weather Reports


time (UTC)temp
F
wind
direction
speed
knots
gust
knots
rain 1hr
in
rain 24hr
in
rain mn
in
humidity
%
barometer
mb
20260507044555 55 360 0.9 3.5 0.00 0.00 0.00 78 1018.8
20260507043048 56 360 0.9 5.2 0.00 0.00 0.00 77 1018.6
20260507041558 56 360 0.9 5.2 0.00 0.00 0.00 76 1018.4
20260507040044 57 360 1.7 7.0 0.00 0.00 0.00 75 1018.1
20260507034542 58 360 1.7 5.2 0.00 0.00 0.00 72 1017.8
20260507033042 58 360 1.7 5.2 0.00 0.00 0.00 71 1017.7
20260507031542 59 360 1.7 7.0 0.00 0.00 0.00 69 1017.6
20260507030039 60 360 1.7 9.6 0.00 0.00 0.00 68 1017.4
20260507024538 60 360 2.6 7.0 0.00 0.00 0.00 66 1017.2
20260507023034 61 360 1.7 7.8 0.00 0.00 0.00 66 1016.9
20260507021538 61 360 2.6 8.7 0.00 0.00 0.00 64 1016.8
20260507020036 62 360 2.6 7.8 0.00 0.00 0.00 63 1016.6
20260507014542 63 360 0.9 7.8 0.00 0.00 0.00 62 1016.4
20260507013041 63 360 0.9 7.0 0.00 0.00 0.00 59 1016.1
20260507011541 64 360 1.7 9.6 0.00 0.00 0.00 57 1015.8
20260507010042 65 360 1.7 8.7 0.00 0.00 0.00 57 1015.6
20260507004532 66 360 2.6 7.8 0.00 0.00 0.00 57 1015.5
20260507003031 66 360 2.6 8.7 0.00 0.00 0.00 55 1015.6
20260507001551 67 360 3.5 12.2 0.00 0.00 0.00 54 1015.4
20260507000036 68 360 2.6 8.7 0.00 0.00 0.00 53 1015.3
20260506234533 68 360 1.7 7.8 0.00 0.00 0.00 54 1015.2
20260506233030 69 360 5.2 11.3 0.00 0.00 0.00 52 1015.0
20260506231533 68 360 2.6 13.9 0.00 0.00 0.00 53 1014.8
20260506230030 69 360 2.6 9.6 0.00 0.00 0.00 51 1014.7
20260506224529 70 360 2.6 11.3 0.00 0.00 0.00 52 1014.6
20260506223027 69 64 4.3 10.4 0.00 0.00 0.00 52 1014.5
20260506221526 69 174 3.5 12.2 0.00 0.00 0.00 53 1014.5
20260506220025 69 223 3.5 8.7 0.00 0.00 0.00 52 1014.6
20260506214526 69 208 5.2 12.2 0.00 0.00 0.00 52 1014.6
20260506213023 69 53 5.2 10.4 0.00 0.00 0.00 53 1014.8
20260506211537 68 232 2.6 9.6 0.00 0.00 0.00 53 1014.9
20260506210032 69 360 4.3 9.6 0.00 0.00 0.00 53 1015.0
20260506204522 68 183 5.2 13.0 0.00 0.00 0.00 54 1015.2
20260506203018 67 360 3.5 10.4 0.00 0.00 0.00 56 1015.3
20260506201516 67 360 1.7 9.6 0.00 0.00 0.00 55 1015.5
20260506200014 66 360 5.2 10.4 0.00 0.00 0.00 56 1015.5
20260506194512 65 360 2.6 7.8 0.00 0.00 0.00 58 1015.7
20260506193009 63 360 0.9 9.6 0.00 0.00 0.00 60 1015.8
20260506191507 62 360 1.7 10.4 0.00 0.00 0.00 58 1016.0
20260506190104 62 360 3.5 9.6 0.00 0.00 0.00 60 1015.7
20260506184502 60 360 3.5 8.7 0.00 0.00 0.00 61 1015.9
20260506183001 61 360 2.6 9.6 0.00 0.00 0.00 63 1015.9
20260506181606 58 360 4.3 9.6 0.00 0.00 0.00 63 1015.7
20260506180058 59 360 2.6 10.4 0.00 0.00 0.00 62 1016.0
20260506174557 58 360 7.0 13.0 0.00 0.00 0.00 61 1016.3
20260506173125 58 360 4.3 11.3 0.00 0.00 0.00 61 1016.3
20260506171559 58 360 3.5 13.0 0.00 0.00 0.00 61 1016.3
20260506170107 58 360 7.0 14.8 0.00 0.00 0.00 62 1016.2
20260506164554 58 360 2.6 12.2 0.00 0.00 0.00 61 1016.3
20260506163058 59 360 5.2 13.0 0.00 0.00 0.00 61 1016.6
20260506161550 58 360 7.0 15.6 0.00 0.00 0.00 62 1016.6
20260506160049 57 360 4.3 13.0 0.00 0.00 0.00 63 1016.9
20260506154605 56 360 7.8 16.5 0.00 0.00 0.00 63 1016.6
20260506153042 55 360 3.5 10.4 0.00 0.00 0.00 65 1016.9
20260506151543 55 360 2.6 9.6 0.00 0.00 0.00 65 1016.7
20260506150042 55 360 2.6 11.3 0.00 0.00 0.00 64 1016.9
20260506144549 55 360 2.6 14.8 0.00 0.00 0.00 64 1016.9
20260506143037 55 360 1.7 8.7 0.00 0.00 0.00 65 1016.9
20260506141533 53 360 3.5 11.3 0.00 0.00 0.00 66 1016.5
20260506140034 53 360 5.2 12.2 0.00 0.00 0.00 67 1016.2
20260506134526 52 360 5.2 13.9 0.00 0.00 0.00 68 1016.1
20260506133023 52 360 7.8 12.2 0.00 0.00 0.00 68 1015.7
20260506131520 52 360 4.3 13.9 0.00 0.00 0.00 68 1015.3
20260506130017 52 360 6.1 14.8 0.00 0.00 0.00 68 1015.1
20260506124514 52 360 3.5 13.9 0.00 0.00 0.00 69 1014.6
20260506123009 51 360 5.2 14.8 0.00 0.00 0.00 69 1014.3
20260506121507 51 360 6.1 9.6 0.00 0.00 0.00 70 1014.6
20260506120004 51 360 4.3 10.4 0.00 0.00 0.00 71 1014.2
20260506114504 51 360 4.3 10.4 0.00 0.00 0.00 71 1014.2
20260506113100 51 360 6.1 11.3 0.00 0.00 0.00 72 1014.1
20260506111558 51 360 7.8 13.0 0.00 0.00 0.00 73 1013.9
20260506110057 51 360 6.1 15.6 0.00 0.00 0.00 74 1014.0
20260506104620 51 360 7.8 14.8 0.00 0.00 0.00 77 1014.1
20260506103052 51 360 5.2 14.8 0.00 0.00 0.00 78 1013.8
20260506101551 51 360 7.8 12.2 0.00 0.00 0.00 78 1013.4
20260506100048 51 360 4.3 10.4 0.00 0.00 0.00 79 1013.3
20260506094547 51 360 7.0 15.6 0.00 0.00 0.00 79 1013.2
20260506093045 51 360 8.7 14.8 0.00 0.00 0.00 79 1012.8
20260506091542 51 360 5.2 13.0 0.00 0.00 0.00 79 1013.2
20260506090045 52 360 4.3 12.2 0.00 0.00 0.00 79 1013.0
20260506084538 52 360 4.3 11.3 0.00 0.00 0.00 78 1012.9
20260506083040 52 360 6.1 11.3 0.00 0.00 0.00 78 1012.6
20260506081529 52 360 4.3 12.2 0.00 0.00 0.00 77 1012.2
20260506073025 52 360 5.2 11.3 0.00 0.00 0.00 78 1011.8
20260506071526 52 360 2.6 8.7 0.00 0.00 0.00 77 1012.1
20260506061516 52 360 4.3 12.2 0.00 0.00 0.00 76 1011.5